Millville, NJ

11:16 AM EST on December 06, 2019 (GMT -0500)
Millville Municipal

Weather History for KMIV - October, 2019

Change the Weather History Date:

Saturday, October 26, 2019

  Actual Average Record
Temperature  
Mean Temperature 58 °F -  
Max Temperature 66 °F 63 °F 76 °F (1978)
Min Temperature 51 °F 43 °F 27 °F (1987)
Degree Days  
Heating Degree Days 6    
Growing Degree Days 8 (Base 50)    
Moisture  
Dew Point 50 °F    
Average Humidity 77    
Maximum Humidity 96    
Minimum Humidity 45    
Precipitation  
Precipitation 0.00 in - - ()
Sea Level Pressure  
Sea Level Pressure 30.20 in    
Wind  
Wind Speed 4 mph ()    
Max Wind Speed 13 mph    
Max Gust Speed -    
Visibility 9.2 miles    
Events      
Averages and records for this station are not official NWS values.
T = Trace of Precipitation, MM = Missing Value Source: Averaged Metar Reports

Daily Weather History Graph

Daily Weather History Graph

Search for Another Location

Airport or City:

Astronomy

Oct. 26, 2019 Rise Set
Actual Time 7:21 AM EDT 6:06 PM EDT
Civil Twilight 6:53 AM EDT 6:33 PM EDT
Nautical Twilight 6:22 AM EDT 7:05 PM EDT
Astronomical Twilight 5:51 AM EDT 7:36 PM EDT
Moon 5:15 AM EDT (10/26) 5:39 PM EDT (10/26)
Length of Visible Light 11h 40m
Length of Day
10h 45m
Waning Crescent, 3% of the Moon is Illuminated
Oct 26
Waning Crescent
Oct 27
New
Nov 4
First Quarter
Nov 12
Full
Nov 19
Last Quarter

Hourly Weather History & Observations

Time (EDT) Temp. Dew Point Humidity Pressure Visibility Wind Dir Wind Speed Gust Speed Precip Events Conditions
12:54 AM 55.9 °F 53.1 °F 90% 30.19 in 10.0 mi West 3.5 mph - N/A   Mostly Cloudy
1:54 AM 55.0 °F 53.1 °F 93% 30.18 in 10.0 mi Calm Calm - N/A   Scattered Clouds
2:54 AM 55.9 °F 53.1 °F 90% 30.17 in 10.0 mi Calm Calm - N/A   Overcast
3:54 AM 55.9 °F 53.1 °F 90% 30.17 in 10.0 mi Calm Calm - N/A   Overcast
4:54 AM 55.0 °F 53.1 °F 93% 30.17 in 10.0 mi Calm Calm - N/A   Scattered Clouds
5:54 AM 54.0 °F 52.0 °F 93% 30.18 in 8.0 mi Calm Calm - N/A   Clear
6:46 AM 51.1 °F 50.0 °F 96% 30.18 in 2.5 mi Calm Calm - N/A   Partly Cloudy
6:54 AM 51.1 °F 48.9 °F 92% 30.19 in 3.0 mi Calm Calm - N/A   Scattered Clouds
7:54 AM 53.1 °F 51.1 °F 93% 30.20 in 8.0 mi North 3.5 mph - N/A   Overcast
8:54 AM 57.0 °F 51.1 °F 81% 30.23 in 10.0 mi North 3.5 mph - N/A   Clear
9:54 AM 61.0 °F 46.9 °F 60% 30.24 in 10.0 mi NE 9.2 mph - N/A   Overcast
10:54 AM 63.0 °F 45.0 °F 52% 30.23 in 10.0 mi NE 12.7 mph - N/A   Clear
11:54 AM 64.9 °F 43.0 °F 45% 30.24 in 10.0 mi ENE 10.4 mph - N/A   Clear
12:54 PM 66.0 °F 44.1 °F 45% 30.22 in 10.0 mi Variable 6.9 mph - N/A   Scattered Clouds
1:54 PM 64.9 °F 45.0 °F 48% 30.21 in 10.0 mi East 6.9 mph - N/A   Scattered Clouds
3:54 PM 62.1 °F 48.9 °F 62% 30.20 in 10.0 mi East 11.5 mph - N/A   Mostly Cloudy
4:54 PM 60.1 °F 50.0 °F 69% 30.21 in 10.0 mi East 12.7 mph - N/A   Overcast
5:54 PM 59.0 °F 48.9 °F 69% 30.21 in 10.0 mi East 8.1 mph - N/A   Overcast
6:54 PM 57.9 °F 50.0 °F 75% 30.21 in 10.0 mi East 8.1 mph - N/A   Mostly Cloudy
7:54 PM 57.0 °F 50.0 °F 77% 30.20 in 10.0 mi East 8.1 mph - N/A   Clear
8:54 PM 55.9 °F 50.0 °F 80% 30.22 in 10.0 mi East 4.6 mph - N/A   Overcast
9:54 PM 55.9 °F 50.0 °F 80% 30.20 in 10.0 mi East 5.8 mph - N/A   Partly Cloudy
10:54 PM 55.9 °F 51.1 °F 84% 30.19 in 10.0 mi East 8.1 mph - N/A   Clear
11:54 PM 57.0 °F 52.0 °F 83% 30.18 in 10.0 mi East 6.9 mph - N/A   Clear